Dewpoint
73 73 74 74 74 74 73 72 73 73 73 73 73 73 74 73 74 74 73 73 72 72 71 72 72 73 72 72 72 72 73 75 75 76 75 74 74 72 75 75 76 76 75 75 74 72 72 72 72 72 72 72 72 72 73 73 73 72 72 73 73 72 72 72 73 73 73 73 73 72 72 72 72 72 72 72 72 73 72 72 73 73 73 73 73
73 74 73 74 74 75 75 74 73 74 73 73 73 73 72 73 74 74 74 73 72 72 72 71 70 71 72 71 71 70 71 72 74 75 75 74 74 73 75 76 76 76 76 75 75 74 72 72 72 72 72 72 72 72 72 73 73 73 73 73 73 73 73 73 73 73 73 73 73 73 73 73 73 73 73 73 73 73 73 73 73 73 73 73 73
74 74 74 74 74 75 74 74 73 73 75 74 75 74 74 73 73 72 73 73 72 72 73 72 72 72 72 72 71 72 71 72 71 72 73 74 74 74 74 75 76 76 75 75 75 75 74 72 72 72 72 72 72 72 73 73 73 73 73 73 73 73 73 73 73 73 73 73 73 73 73 73 73 73 73 73 73 73 73 73 73 73 73 73 73
75 74 74 74 74 73 73 73 73 73 74 74 74 74 74 74 74 74 74 73 73 72 73 73 71 70 72 72 71 71 70 71 70 70 71 73 73 74 74 74 75 75 76 75 74 75 75 73 72 72 72 72 72 73 73 73 73 73 73 73 73 73 73 73 73 73 73 73 73 73 73 74 74 74 74 74 74 74 74 74 74 74 74 74 74
76 75 75 74 73 74 73 73 73 73 74 75 76 75 74 73 74 74 74 73 73 73 73 72 71 70 71 70 71 71 71 72 71 70 70 71 72 73 73 74 73 74 75 75 74 74 74 74 73 72 72 72 72 73 73 73 73 73 73 73 73 73 73 73 73 73 73 73 73 73 73 74 74 74 74 74 74 74 74 74 74 74 74 74 74
76 76 75 74 74 74 73 72 73 75 75 76 74 73 72 73 73 73 72 72 71 72 72 72 71 72 71 71 71 71 70 70 70 70 70 70 70 72 73 73 73 74 75 75 76 75 74 75 74 73 73 73 73 73 73 73 73 73 73 73 73 73 73 73 73 73 74 74 73 73 73 74 74 74 74 74 74 74 75 75 75 75 75 74 74
75 74 74 74 73 73 74 73 73 75 74 74 74 73 73 72 72 72 72 71 71 72 72 71 70 71 72 72 71 71 71 70 71 71 71 71 72 70 72 72 73 72 73 73 75 76 75 75 74 74 73 73 73 73 73 73 73 73 73 73 73 73 73 73 73 73 74 74 74 74 74 74 74 74 74 74 75 75 75 75 75 75 75 75 75
74 74 74 74 73 73 73 74 75 75 74 74 75 73 73 73 72 72 71 71 71 71 72 72 70 70 71 72 72 72 71 70 71 71 69 72 72 72 72 72 73 72 73 73 74 75 76 75 75 75 74 74 74 73 73 74 73 73 73 73 73 73 74 74 75 74 74 74 74 74 74 74 74 74 74 74 74 75 75 75 75 76 76 76 76
73 72 74 74 73 73 74 74 75 75 74 74 74 73 73 72 73 73 71 71 71 70 71 71 70 70 72 72 72 72 71 71 71 70 71 71 71 71 72 73 73 73 74 72 74 74 75 75 75 75 75 74 74 74 74 74 74 74 74 73 73 73 74 74 75 75 75 74 74 74 74 74 74 74 74 75 74 75 75 75 75 75 76 76 76
74 72 74 74 74 74 73 74 75 74 73 73 73 74 74 73 73 73 72 72 70 70 70 70 69 70 71 71 72 71 71 71 71 71 71 71 71 71 72 72 72 72 71 72 71 74 75 75 75 75 76 76 75 75 74 74 74 74 74 74 74 74 74 74 75 75 75 75 75 75 75 75 75 75 75 75 75 75 75 75 75 75 76 76 76
74 75 73 74 74 74 75 74 74 73 73 72 73 73 73 73 73 73 74 72 70 71 72 72 71 71 71 72 72 72 71 70 71 72 70 69 69 71 70 73 72 72 73 73 72 72 74 75 75 74 74 76 76 75 75 75 74 74 74 74 74 74 74 74 74 75 75 75 75 75 75 75 75 75 75 75 75 75 75 76 76 76 76 76 76
74 75 74 74 74 75 75 74 73 73 72 73 72 71 72 72 72 72 73 73 71 71 71 71 71 71 70 69 69 70 72 71 72 71 71 71 70 71 69 71 72 72 71 73 72 71 73 74 74 74 73 73 76 76 76 75 75 75 75 75 75 74 74 74 74 75 75 75 75 75 75 75 75 75 75 75 75 75 75 75 75 75 76 75 75
74 74 75 75 74 74 75 74 74 74 73 72 72 73 72 70 70 72 71 72 71 71 70 71 70 69 70 69 69 69 70 71 71 70 69 70 69 71 70 70 71 72 72 72 72 72 72 73 73 73 73 73 73 75 76 76 76 75 75 76 76 75 75 74 74 74 74 75 75 75 75 75 75 75 75 75 75 75 75 75 75 75 75 75 75
73 74 73 74 74 74 74 74 74 74 74 73 73 72 71 69 70 71 72 70 70 70 70 70 68 66 66 67 67 68 70 70 69 68 67 68 68 70 70 69 68 69 71 72 73 72 71 72 73 72 73 73 73 72 73 74 75 76 76 76 76 76 75 76 75 75 74 74 75 75 75 75 75 75 75 75 75 75 75 75 75 75 75 75 75
73 73 73 73 73 73 73 74 74 74 72 71 70 69 70 70 70 71 70 70 69 71 71 70 67 67 68 67 65 64 67 70 68 67 66 66 67 66 68 68 68 69 69 71 72 72 71 71 72 73 74 74 73 73 73 73 73 74 75 75 76 76 76 76 75 75 75 74 75 75 75 75 75 75 75 75 75 75 75 75 75 75 75 75 75
72 72 73 73 73 73 73 74 74 74 71 71 70 69 70 70 72 72 69 68 69 69 71 71 69 69 66 65 64 64 61 63 66 68 65 65 65 65 67 69 69 71 70 70 68 71 72 72 72 73 75 74 74 74 73 73 73 74 74 75 75 75 76 76 76 76 76 76 75 75 75 75 75 75 76 76 75 75 75 75 75 75 75 75 75
72 72 72 73 72 73 73 73 74 72 70 69 69 69 70 71 71 71 69 68 68 68 70 69 70 70 69 66 64 64 62 62 62 65 65 64 64 64 67 69 69 71 71 70 70 70 71 72 73 74 75 75 75 74 74 74 74 75 75 75 75 74 74 75 76 76 77 77 77 76 76 76 75 75 76 76 76 76 75 75 75 75 75 75 75
72 72 72 72 72 72 72 72 73 71 70 69 69 69 70 71 71 70 69 69 69 70 68 71 71 70 71 69 68 63 64 65 64 61 69 64 67 67 67 67 70 71 72 72 71 70 71 72 73 74 74 75 74 75 73 74 74 74 75 74 76 75 75 75 75 76 76 76 77 77 77 76 76 76 76 76 76 76 76 75 75 75 75 75 75
71 71 71 71 71 70 71 71 72 72 70 70 70 69 70 71 71 70 68 69 69 68 69 69 68 69 68 67 68 67 65 65 62 64 64 66 66 64 64 66 67 70 70 70 68 69 70 71 71 72 73 74 73 74 75 74 74 75 75 75 75 75 75 75 75 76 76 77 77 77 77 77 76 76 76 76 76 76 76 76 75 75 75 75 75
70 70 70 70 71 70 70 70 71 70 72 70 69 70 70 71 70 69 69 69 69 68 67 68 66 67 68 68 67 67 68 67 68 65 65 62 64 66 65 64 66 66 68 69 68 67 68 71 71 71 72 72 73 73 73 73 74 74 75 75 75 74 74 74 75 76 76 77 77 77 77 77 77 77 76 76 76 76 76 76 76 76 76 76 76
69 69 69 69 70 70 70 70 70 70 72 71 70 70 71 70 69 69 68 69 69 68 68 68 68 67 67 69 68 68 69 69 67 68 66 65 62 63 65 65 66 66 66 67 67 67 68 70 71 71 71 72 73 73 72 73 73 74 74 74 75 74 74 74 74 75 76 76 77 77 77 78 77 77 78 77 77 77 77 76 76 76 76 76 76
69 68 68 69 69 69 70 70 71 71 72 70 69 69 69 69 69 69 69 67 68 69 68 69 69 68 68 70 70 68 67 67 65 68 67 67 64 63 64 65 65 67 68 68 70 67 67 68 70 70 70 71 72 72 73 73 73 73 73 74 74 74 74 73 74 75 75 75 76 76 77 77 77 77 77 77 78 77 77 77 77 77 77 77 77
68 68 68 68 69 69 69 70 70 70 71 70 69 69 69 69 69 69 69 67 67 68 69 69 68 68 68 70 68 65 64 64 65 66 65 64 65 63 63 63 64 64 67 68 70 69 68 68 68 68 71 71 71 72 73 73 73 72 73 73 73 73 73 73 73 74 73 74 75 76 76 76 77 77 77 77 77 77 78 77 77 77 77 77 77
68 68 67 67 68 68 68 69 69 69 69 69 70 69 68 69 69 69 69 68 68 67 68 67 66 67 68 69 68 66 66 66 65 67 67 66 64 63 64 66 66 65 67 69 70 69 69 68 68 69 70 70 71 72 72 73 73 73 72 72 72 72 72 72 73 73 73 73 72 74 75 75 76 76 77 76 76 76 76 77 77 77 77 77 77
67 67 67 67 67 68 68 68 69 69 69 70 70 70 69 70 70 68 68 67 68 67 67 67 67 67 67 68 68 67 66 67 66 67 67 67 67 65 63 63 63 64 66 67 67 68 69 69 69 69 70 71 71 72 73 72 72 72 73 71 71 71 71 71 71 71 72 72 72 73 73 73 73 74 75 76 76 76 76 76 76 77 77 77 77
65 66 65 67 67 67 68 68 69 69 69 69 70 70 70 71 70 69 68 69 69 67 67 67 68 68 68 69 68 66 67 67 66 69 68 64 66 64 64 65 64 63 65 66 67 66 66 68 69 71 71 71 71 72 73 71 71 72 72 71 71 70 70 70 70 70 70 71 71 72 72 72 73 73 73 74 74 75 76 76 76 76 76 76 77
65 66 67 67 67 68 68 69 69 69 69 69 69 69 70 70 69 70 71 71 70 70 69 68 68 68 68 69 68 68 68 68 68 69 68 66 64 65 65 63 63 63 63 64 65 66 64 68 70 70 72 72 72 72 73 73 72 72 73 73 72 70 70 70 70 70 69 70 70 70 71 71 71 72 72 73 73 74 74 74 75 75 75 76 76
66 66 66 67 67 67 67 67 68 68 68 69 69 68 69 69 69 69 69 68 69 69 68 69 69 68 68 68 69 67 68 69 69 68 68 67 67 66 67 66 63 60 61 63 63 64 66 66 68 71 71 72 72 73 73 73 73 72 74 73 73 73 70 70 69 69 69 69 69 69 69 69 70 70 71 71 71 71 72 72 73 73 73 74 74
65 66 66 67 67 66 67 66 67 67 67 67 67 67 67 67 67 68 68 68 68 69 70 68 69 68 69 68 68 68 67 69 67 67 69 68 67 67 67 65 64 63 60 60 62 62 64 63 64 69 72 72 72 72 73 74 73 73 73 73 73 74 71 69 69 69 69 69 68 68 69 69 68 69 69 70 70 70 71 71 71 71 72 72 72
65 66 66 66 66 67 66 67 68 67 67 67 66 66 66 65 66 66 66 67 67 67 69 69 69 68 68 68 67 67 68 69 69 68 68 69 69 69 68 67 67 66 63 61 61 63 63 66 65 66 72 73 72 72 73 73 72 73 73 74 74 74 70 69 69 69 69 68 68 68 68 68 68 68 68 68 69 69 70 70 70 70 70 71 71
66 66 66 66 66 66 67 67 67 67 67 66 66 66 66 65 65 65 65 66 66 66 67 67 67 68 68 67 67 67 67 68 68 68 68 68 68 69 69 69 68 68 66 65 63 64 65 64 67 67 68 72 71 70 72 74 74 73 73 74 74 72 70 71 68 68 68 68 67 67 66 66 67 67 67 67 67 68 68 69 69 69 70 70 70
66 66 66 66 65 66 66 66 66 66 65 65 65 65 65 65 65 64 64 65 65 65 65 66 66 67 66 66 67 68 68 68 68 67 68 68 68 67 68 68 68 69 68 67 64 63 65 65 66 69 70 70 72 71 72 73 74 73 74 74 75 72 73 73 70 68 67 67 67 67 66 65 66 66 66 67 67 68 68 68 68 68 68 69 69
66 66 66 66 67 66 67 66 66 66 66 65 65 65 65 64 64 65 65 65 65 65 66 65 65 66 66 66 66 67 67 67 67 67 67 68 68 67 67 68 68 69 69 67 65 64 66 67 66 67 68 70 70 71 71 71 73 75 73 74 75 74 74 75 74 70 68 66 66 66 66 66 66 66 66 66 67 67 68 68 68 67 67 67 67
67 66 67 66 67 66 65 66 66 66 66 66 65 65 64 63 64 63 64 64 64 64 65 65 66 65 65 66 67 65 67 66 66 67 67 67 68 67 67 67 68 66 70 67 66 65 64 67 67 68 68 68 68 71 70 70 72 74 75 75 75 75 75 75 75 75 69 67 66 65 65 66 66 66 66 66 66 66 67 67 67 66 66 66 66
66 67 66 67 67 66 66 66 66 66 67 66 66 65 63 63 63 63 63 63 63 63 63 63 64 65 65 65 65 66 65 65 65 66 66 67 67 67 67 67 65 65 67 68 67 66 64 65 67 67 67 68 68 68 70 70 71 72 73 73 73 73 75 75 75 74 70 68 67 66 65 65 66 66 65 66 65 65 65 65 65 65 65 65 65
66 67 67 67 67 66 66 66 66 65 65 65 65 65 65 64 63 63 63 63 63 63 63 63 63 64 64 65 65 65 64 65 65 67 68 67 67 67 67 67 66 66 67 68 68 67 66 65 66 66 67 67 68 69 68 69 70 70 70 70 70 72 73 75 75 74 71 68 67 66 66 65 65 65 65 65 64 64 64 64 63 63 63 63 63
66 66 66 66 66 66 66 66 66 65 63 63 63 64 63 64 63 62 62 62 62 62 63 63 62 63 63 64 65 64 65 63 64 66 68 68 67 67 67 64 65 65 66 66 68 68 67 66 65 67 68 68 68 69 69 68 69 70 70 71 71 72 74 74 74 75 71 66 67 66 66 65 65 65 65 64 64 63 63 63 62 62 62 62 62
65 66 66 66 66 66 66 67 66 65 64 64 65 64 64 64 63 62 61 61 60 61 62 62 63 64 64 63 64 65 66 64 64 66 67 67 67 66 65 65 65 66 66 66 66 68 68 66 66 65 67 67 67 68 69 69 68 69 69 71 72 72 73 72 72 73 74 74 74 75 68 67 65 64 65 65 64 64 63 62 61 61 60 60 59
64 64 65 66 66 66 67 67 66 66 66 66 66 65 65 64 63 63 62 60 60 60 60 61 61 62 63 64 65 65 65 64 65 66 66 67 66 66 67 65 66 65 66 65 65 66 66 66 66 66 66 66 67 66 68 70 70 69 69 69 69 70 72 72 71 72 74 74 72 70 71 71 69 69 66 63 64 64 63 62 61 59 59 58 57
64 64 65 66 66 66 66 66 66 66 66 66 66 66 65 64 64 63 63 61 61 60 60 60 60 60 61 62 63 64 65 65 65 66 66 66 66 65 65 66 66 66 66 66 65 65 66 66 65 64 66 65 67 68 68 69 69 68 68 68 67 68 69 71 72 72 73 73 72 72 70 69 67 67 64 64 64 63 63 63 62 62 60 59 58
66 65 65 65 66 66 66 66 67 66 66 66 66 65 64 64 64 63 62 61 60 60 60 59 60 60 61 61 62 63 65 63 60 61 62 62 66 66 68 68 67 67 67 66 66 65 65 65 65 65 65 66 65 66 67 67 67 66 68 69 68 69 69 69 70 72 72 72 72 72 72 73 73 72 71 71 72 68 66 64 66 66 63 60 59
66 66 67 67 65 65 65 66 66 66 66 66 64 60 60 64 63 62 61 61 61 60 60 60 60 60 60 61 62 61 61 60 60 59 58 58 58 64 66 67 67 67 66 66 66 66 65 64 64 64 65 65 64 65 65 66 67 68 68 68 67 67 68 68 69 70 70 71 71 72 72 73 72 71 71 70 71 72 72 72 71 71 67 63 62
67 67 67 66 65 64 64 65 65 66 65 65 61 59 60 61 63 62 60 60 60 60 60 60 59 59 59 61 62 61 62 62 64 58 58 57 58 57 58 60 61 66 66 66 66 65 65 64 64 65 64 64 64 65 66 65 66 67 67 67 67 67 67 66 65 69 72 71 71 71 72 73 72 70 70 70 70 71 71 71 68 67 64 63 62
67 67 67 66 65 65 65 65 65 66 66 63 60 59 60 60 60 62 61 60 59 59 59 59 59 59 59 60 62 63 63 63 63 65 62 58 57 57 57 58 59 59 60 66 66 65 65 64 64 64 65 64 64 65 65 65 66 67 68 67 67 67 66 66 66 67 72 73 71 71 70 73 71 70 70 70 70 71 71 68 66 66 64 62 62
66 67 66 65 65 65 65 66 66 65 65 63 60 58 59 58 59 60 61 60 60 59 58 58 58 59 59 59 59 61 63 60 64 64 65 66 58 56 57 57 57 58 59 60 60 66 65 65 64 64 65 65 65 65 66 66 67 67 67 66 67 67 67 67 67 68 70 72 71 70 68 70 70 70 68 71 70 71 71 67 65 64 63 62 62
66 66 66 66 66 66 66 66 66 66 66 63 60 58 56 56 57 59 61 60 59 59 59 59 59 60 59 59 60 60 61 62 63 64 65 65 66 65 62 62 63 61 57 58 58 58 62 64 65 64 65 66 65 66 67 68 67 67 66 65 67 67 67 67 69 69 72 71 69 68 68 68 69 69 68 70 70 71 72 69 64 63 63 62 61
65 65 65 65 65 65 65 65 65 65 65 61 58 56 55 54 54 57 62 60 61 61 60 60 59 59 58 59 59 58 58 59 60 57 57 60 65 65 65 64 63 64 64 63 63 63 64 64 64 65 65 66 67 67 68 69 68 68 68 68 68 68 68 68 69 70 71 71 70 68 65 67 69 69 68 69 69 71 71 66 63 62 62 61 60
65 65 65 65 64 64 64 65 65 64 63 60 58 56 54 54 54 61 61 61 60 60 60 60 60 60 60 60 58 56 57 58 55 52 53 56 60 64 66 66 65 64 64 60 61 62 64 65 64 63 64 64 62 67 68 67 68 69 68 69 70 70 69 68 67 66 66 68 69 68 66 67 69 66 68 69 71 70 71 70 62 62 60 60 60
63 64 64 63 64 64 64 64 64 63 62 62 58 55 54 53 55 62 62 61 60 60 59 60 61 61 60 60 58 58 56 57 54 52 53 52 58 62 64 64 65 64 64 65 60 59 59 59 59 60 60 60 60 61 61 61 67 67 68 67 67 67 66 66 66 65 65 66 68 67 66 66 69 68 67 70 70 69 70 71 70 60 60 58 58
60 60 61 62 64 64 63 62 60 60 60 61 57 53 53 55 53 62 62 61 59 60 60 60 60 60 60 59 59 59 57 56 53 51 52 55 59 62 63 64 64 65 65 65 64 63 58 58 59 60 60 60 61 61 61 61 61 63 68 65 66 65 65 66 65 64 65 66 66 68 68 66 69 69 68 69 70 69 70 70 69 64 58 56 57
61 63 63 63 63 62 59 60 63 61 59 59 58 54 54 54 58 62 62 60 59 59 60 60 61 61 60 60 59 58 55 53 51 51 51 52 58 61 62 64 64 64 65 66 65 64 63 63 64 64 65 62 64 66 66 60 61 64 68 67 65 65 66 64 64 65 65 65 67 71 67 67 68 68 68 67 66 67 69 70 68 69 68 68 66